Regional Weather Roundup
Issued by NWS Little Rock, AR

Home | Current Version | Previous Version | Graphics & Text | Print | Product List | Glossary On
Versions: 1 2 3 4 5 6 7 8 9 10 11 12 13 14 15 16 17 18 19 20 21 22 23 24 25 26 27 28 29 30 31 32 33 34 35 36 37 38 39 40 41 42 43 44 45 46 47 48 49 50
000
ASUS44 KLZK 061405
RWRLZK

WEATHER ROUNDUP FOR ARKANSAS
NATIONAL WEATHER SERVICE LITTLE ROCK AR
900 AM CDT MON JUL 06 2015

NOTE: "FAIR" INDICATES FEW OR NO CLOUDS BELOW 12,000 FEET WITH NO
SIGNIFICANT WEATHER AND/OR OBSTRUCTIONS TO VISIBILITY.

ARZ001-003-010-029-061500-
NORTHWEST ARKANSAS

CITY           SKY/WX    TMP DP  RH WIND       PRES   REMARKS
FAYETTEVILLE   PTSUNNY   77  72  84 S8G18     30.06R
FORT SMITH     PTSUNNY   76  71  85 NE5       30.04S
HARRISON       PTSUNNY   73  71  93 S8        30.07F
BENTONVILLE    PTSUNNY   77  70  78 SW15      30.05F
ROGERS         PTSUNNY   78  71  79 S16G23    30.05F
SILOAM SPGS    PTSUNNY   75  68  78 S18       30.05S
HIGHFILL       PTSUNNY   77  72  84 S14       30.04F
SPRINGDALE     PTSUNNY   79  72  78 S14       30.07S
$$

ARZ004-005-016-061500-
NORTH CENTRAL ARKANSAS

CITY           SKY/WX    TMP DP  RH WIND       PRES   REMARKS
BATESVILLE     SUNNY     75  70  83 SE6       30.08S
FLIPPIN        PTSUNNY   79  70  73 SW6       30.04S
MTN HOME       MOSUNNY   77  71  82 SW7       30.06S
$$

ARZ040-041-061500-
WEST CENTRAL ARKANSAS

CITY           SKY/WX    TMP DP  RH WIND       PRES   REMARKS
MENA           CLOUDY    79  73  83 S7        30.10S
MOUNT IDA      CLOUDY    76  72  87 VRB3      30.08S
$$

ARZ009-017-025-026-028-061500-
NORTHEAST ARKANSAS

CITY           SKY/WX    TMP DP  RH WIND       PRES   REMARKS
JONESBORO      CLOUDY    73  70  90 S12       30.10S
NEWPORT        CLOUDY    75  72  91 S14       30.10S
WALNUT RIDGE   PTSUNNY   73  68  83 S10       30.09S
BLYTHEVILLE    PTSUNNY   76  71  85 S10       30.11S
$$

ARZ022-023-033-042-044-061500-
CENTRAL ARKANSAS

CITY           SKY/WX    TMP DP  RH WIND       PRES   REMARKS
LITTLE ROCK    CLOUDY    74  69  85 SW7       30.11R
N LITTLE ROCK  CLOUDY    74  72  95 SW8       30.11R
SEARCY         CLOUDY    74  71  91 S5        30.11S
HOT SPRINGS    CLOUDY    77  73  87 SW8       30.11R
RUSSELLVILLE   CLOUDY    77  72  84 E5        30.07F
CLINTON        CLOUDY    73  72  94 CALM      30.10F
$$

ARZ036-061500-
EAST ARKANSAS

CITY           SKY/WX    TMP DP  RH WIND       PRES   REMARKS
WEST MEMPHIS   CLOUDY    74  73  97 S8        30.11S
$$

ARZ050-053-066-070-073-061500-
SOUTHWEST ARKANSAS

CITY           SKY/WX    TMP DP  RH WIND       PRES   REMARKS
ARKADELPHIA    PTSUNNY   74  74 100 S5        30.11F FOG
CAMDEN         CLOUDY    73  68  83 CALM      30.12S FOG
TEXARKANA      CLOUDY    76  74  93 S8        30.10R
EL DORADO      CLOUDY    76  73  91 S10       30.13R
DE QUEEN       CLOUDY    78  74  87 S5        30.06R
$$

ARZ056-057-069-061500-
SOUTHEAST ARKANSAS

CITY           SKY/WX    TMP DP  RH WIND       PRES   REMARKS
PINE BLUFF     CLOUDY    72  70  93 S6        30.12S
STUTTGART      CLOUDY    73  70  88 S10       30.10S
MONTICELLO     CLOUDY    74  73  97 S8        30.13R

$$





USA.gov is the U.S. government's official web portal to all federal, state and local government web resources and services.